TimeCDT,TemperatureF,Dew PointF,Humidity,Sea Level PressureIn,VisibilityMPH,Wind Direction,Wind SpeedMPH,Gust SpeedMPH,PrecipitationIn,Events,Conditions,WindDirDegrees,DateUTC
12:53 AM,51.1,46.0,83,30.12,10.0,North,3.5,-,N/A,,Clear,350,2013-07-27 05:53:00
1:53 AM,48.9,45.0,86,30.12,10.0,Calm,Calm,-,N/A,,Clear,0,2013-07-27 06:53:00
2:53 AM,46.9,44.1,90,30.12,10.0,NW,3.5,-,N/A,,Clear,310,2013-07-27 07:53:00
3:53 AM,45.0,43.0,93,30.11,10.0,WNW,5.8,-,N/A,,Clear,290,2013-07-27 08:53:00
4:53 AM,44.1,42.1,93,30.12,10.0,NW,6.9,-,N/A,,Clear,320,2013-07-27 09:53:00
5:53 AM,44.1,42.1,93,30.13,10.0,NNW,6.9,-,N/A,,Partly Cloudy,330,2013-07-27 10:53:00
6:53 AM,46.0,44.1,93,30.13,10.0,NW,4.6,-,N/A,,Partly Cloudy,320,2013-07-27 11:53:00
7:53 AM,52.0,46.9,83,30.13,10.0,NW,3.5,-,N/A,,Scattered Clouds,320,2013-07-27 12:53:00
8:53 AM,57.0,46.9,69,30.13,10.0,North,5.8,-,N/A,,Mostly Cloudy,350,2013-07-27 13:53:00
9:53 AM,61.0,43.0,52,30.13,10.0,North,10.4,-,N/A,,Mostly Cloudy,360,2013-07-27 14:53:00
10:53 AM,62.1,43.0,50,30.13,10.0,North,15.0,21.9,N/A,,Mostly Cloudy,350,2013-07-27 15:53:00
11:53 AM,63.0,43.0,48,30.12,10.0,NNW,9.2,-,N/A,,Mostly Cloudy,340,2013-07-27 16:53:00
12:53 PM,64.0,44.1,48,30.10,10.0,NW,10.4,21.9,N/A,,Mostly Cloudy,320,2013-07-27 17:53:00
1:53 PM,66.0,42.1,42,30.08,10.0,NW,13.8,-,N/A,,Scattered Clouds,320,2013-07-27 18:53:00
2:53 PM,70.0,42.1,36,30.07,10.0,NNW,11.5,19.6,N/A,,Scattered Clouds,330,2013-07-27 19:53:00
3:53 PM,69.1,41.0,36,30.06,10.0,NW,9.2,18.4,N/A,,Scattered Clouds,320,2013-07-27 20:53:00
4:53 PM,71.1,41.0,34,30.05,10.0,NW,15.0,20.7,N/A,,Scattered Clouds,320,2013-07-27 21:53:00
5:53 PM,70.0,42.1,36,30.03,10.0,NNW,17.3,20.7,N/A,,Scattered Clouds,340,2013-07-27 22:53:00
6:53 PM,68.0,42.1,39,30.03,10.0,NNW,10.4,-,N/A,,Clear,330,2013-07-27 23:53:00
7:53 PM,66.0,43.0,43,30.03,10.0,NNW,9.2,-,N/A,,Clear,340,2013-07-28 00:53:00
8:53 PM,57.9,44.1,60,30.03,10.0,WNW,4.6,-,N/A,,Clear,300,2013-07-28 01:53:00
9:53 PM,57.0,46.0,67,30.04,10.0,West,6.9,-,N/A,,Mostly Cloudy,270,2013-07-28 02:53:00
10:53 PM,54.0,45.0,72,30.04,10.0,West,5.8,-,N/A,,Clear,270,2013-07-28 03:53:00
11:53 PM,51.1,44.1,77,30.03,10.0,NNW,5.8,-,N/A,,Clear,330,2013-07-28 04:53:00